Regional Weather Roundup
Issued by NWS

Home | Current Version | Previous Version | Graphics & Text | Print | Product List | Glossary On
Versions: 1 2 3 4 5 6 7 8 9 10 11 12 13 14 15 16 17 18 19 20 21 22 23 24 25 26 27 28 29 30 31 32 33 34 35 36 37 38 39 40 41 42 43 44 45 46 47 48 49 50
000
ASUS43 KOAX 251002
RWRNE

WEATHER ROUNDUP FOR NEBRASKA
NATIONAL WEATHER SERVICE OMAHA NE
500 AM CDT SAT APR 25 2015

NOTES: SATELLITE DATA IS BEING USED TO AUGMENT CLOUD COVER ABOVE
       12000 FEET.
       "FAIR" INDICATES FEW OR NO CLOUDS BELOW 12,000 FEET WITH NO
       SIGNIFICANT WEATHER AND/OR OBSTRUCTIONS TO VISIBILITY.

  * THESE STATIONS DO NOT REPORT WEATHER SUCH AS RAIN...SNOW OR FOG.

NEZ001>004-019>022-054>056-251100-
NEBRASKA PANHANDLE

CITY           SKY/WX    TMP DP  RH WIND       PRES   REMARKS
SCOTTSBLUFF    CLEAR     41  39  93 NW8       29.67R
ALLIANCE       MOCLDY    40  38  93 W6        29.65R
CHADRON        PTCLDY    37  35  92 SW6       29.65S WCI  32
KIMBALL        PTCLDY    42  35  78 NW9       29.68R
SIDNEY         CLEAR     40  37  89 NW9       29.67R WCI  34
$$

NEZ057>060-069>072-079>082-251100-
SOUTHWEST NEBRASKA

CITY           SKY/WX    TMP DP  RH WIND       PRES   REMARKS
IMPERIAL       MOCLDY    48  41  76 NW12      29.60R
LEXINGTON      MOCLDY    51  49  95 W8        29.54R
MCCOOK         CLOUDY    51  46  83 W8        29.55R
OGALLALA       MOCLDY    46  43  91 CALM      29.61S
$$

NEZ005>010-023>029-035>040-094-251100-
NORTH CENTRAL NEBRASKA

CITY           SKY/WX    TMP DP  RH WIND       PRES   REMARKS
VALENTINE      CLOUDY    51  48  89 W5        29.59F
AINSWORTH      PTCLDY    48  46  91 W8        29.58S
BROKEN BOW     MOCLDY    49  45  86 W7        29.53R
O`NEILL        CLOUDY    55  54  97 NE7       29.55R FOG
ORD            CLOUDY    55  52  89 E3        29.49S
$$

NEZ041-046>049-061>064-073>077-083>087-251100-
SOUTH CENTRAL NEBRASKA

CITY           SKY/WX    TMP DP  RH WIND       PRES   REMARKS
GRAND ISLAND   RAIN      54  53  97 NE13      29.50R FOG
AURORA         RAIN      54  54 100 N7        29.48S
HASTINGS       RAIN      55  51  86 NW14      29.45F
HEBRON         RAIN      54  52  94 N9        29.43R
HOLDREGE       FOG       51  50  96 NW3       29.51R VSB<1/4
KEARNEY *      CLOUDY    54  48  82 CALM      29.51R
YORK           RAIN      54  54 100 N10       29.47R
$$

NEZ011>018-030>034-042>045-251100-
NORTHEAST NEBRASKA

CITY           SKY/WX    TMP DP  RH WIND       PRES   REMARKS
NORFOLK        CLOUDY    52  51  97 NE10      29.51S FOG
ALBION         CLOUDY    53  51  93 NE12      29.51S
BLAIR          RAIN      50  49  94 NE16G22   29.46S
COLUMBUS *     CLOUDY    52  46  82 NE14      29.50R
FREMONT        RAIN      52  51  95 NE9G17    29.48S
TEKAMAH        LGT RAIN  51  49  92 NE10      29.50S FOG
WAYNE          CLOUDY    50  48  95 NE16      29.54R FOG
$$

NEZ050>053-065>068-078-088>093-251100-
SOUTHEAST NEBRASKA

CITY           SKY/WX    TMP DP  RH WIND       PRES   REMARKS
LINCOLN        LGT RAIN  55  54  96 NE14      29.44S FOG
OMAHA EPPLEY   LGT RAIN  53  51  93 E13G18    29.47R
BEATRICE       CLOUDY    55  54  94 NE8       29.38S
FALLS CITY     CLOUDY    58  55  90 SE9       29.38F
NEBRASKA CITY  RAIN      55  55  99 NE9       29.42S
PLATTSMOUTH    LGT RAIN  55  53  94 NE10      29.45R
$$

NEZ044-045-051>053-067-251100-
OMAHA AREA

CITY           SKY/WX    TMP DP  RH WIND       PRES   REMARKS
OMAHA EPPLEY   LGT RAIN  53  51  93 E13G18    29.47R
BLAIR          RAIN      50  49  94 NE16G22   29.46S
FREMONT        RAIN      52  51  95 NE9G17    29.48S
MILLARD        LGT RAIN  55  53  93 NE8       29.46R
OFFUTT AFB     RAIN      54  53  96 NE12      29.45R FOG
PLATTSMOUTH    LGT RAIN  55  53  94 NE10      29.45R
WAHOO          RAIN      53  50  90 NE14      29.46S
$$



USA.gov is the U.S. government's official web portal to all federal, state and local government web resources and services.